Wind_Speed
16 16 15 14 14 13 10 8 6 7 6 6 5 4 4 3 3 2 2 2 2 2 2 3 2 2 2 3 3 4 4 5 5 5 5 6 6 6 6 6 5 5 5 5 5 5 6 5 4
16 15 15 16 14 10 9 8 7 7 5 5 5 5 4 3 3 3 2 2 2 2 2 3 3 2 3 3 3 3 4 4 4 4 5 6 6 5 5 6 5 5 5 4 3 4 5 4 4
16 15 17 16 11 9 9 8 7 7 5 5 5 5 5 4 3 3 3 3 3 3 3 3 3 3 3 3 2 3 3 3 3 4 5 5 6 5 5 5 5 5 5 4 4 3 4 3 3
16 18 18 14 10 9 9 8 7 6 6 6 5 5 5 4 4 3 3 3 4 4 3 3 4 3 3 2 2 2 2 3 3 3 4 6 6 6 6 6 6 5 4 4 4 4 4 3 2
18 19 16 12 10 10 9 8 7 6 6 6 6 5 5 5 4 4 4 4 4 4 4 4 4 3 3 3 3 2 2 2 3 3 3 6 6 6 6 6 5 5 5 4 4 4 3 3 2
20 18 14 11 10 9 9 8 8 7 7 6 6 5 5 5 4 4 4 4 4 4 5 4 4 3 3 3 4 4 3 4 4 3 3 5 6 6 6 5 5 5 4 4 3 3 3 3 3
18 15 12 10 11 10 9 9 8 7 7 7 7 6 6 6 5 5 5 4 4 5 5 5 5 5 4 5 5 5 5 5 4 4 4 4 4 5 5 5 4 4 3 2 3 3 3 3 4
16 12 11 9 10 10 10 9 8 8 7 7 7 7 7 6 6 5 5 5 6 6 6 5 6 6 5 6 5 5 6 5 4 4 4 4 4 4 4 4 3 3 3 3 3 3 2 3 4
13 11 10 9 10 10 10 9 9 9 9 8 7 8 7 7 6 5 5 6 7 7 7 6 6 6 6 6 6 6 6 5 5 4 5 5 4 5 4 3 2 3 3 3 3 3 3 3 3
11 10 9 9 10 10 10 10 10 11 10 10 9 9 9 8 8 7 7 7 7 7 6 6 7 7 6 6 5 5 6 6 5 4 5 4 4 4 4 3 2 2 2 3 3 3 3 3 3
9 8 9 10 10 11 11 11 11 11 11 10 10 10 9 9 9 9 8 7 7 7 7 7 7 7 6 6 5 5 6 6 6 5 4 4 3 3 3 3 2 3 3 3 3 4 3 3 3
7 8 8 9 10 10 11 12 12 12 11 11 10 9 10 10 9 9 8 8 7 7 7 7 8 7 6 6 5 5 6 6 6 6 4 4 4 3 3 4 4 3 3 4 3 4 4 3 2
8 8 9 10 11 11 12 12 12 13 13 11 10 10 11 10 10 10 9 9 8 7 8 7 7 7 7 6 6 5 6 6 6 6 5 5 5 5 4 3 3 3 2 2 2 2 3 2 2
8 9 10 10 11 12 12 12 12 13 13 12 11 11 11 11 11 11 10 9 9 8 8 7 7 7 7 7 7 6 7 7 7 7 7 6 6 5 5 4 3 3 3 3 3 3 2 1 1
9 10 10 10 11 11 11 11 13 12 12 13 12 12 11 11 11 11 11 10 10 9 8 8 8 8 8 7 7 7 7 7 7 7 7 7 6 6 5 5 5 4 4 4 4 4 3 2 1
9 10 8 9 9 11 12 12 13 12 12 12 12 12 12 12 12 11 11 11 11 10 8 8 8 8 8 7 7 7 7 7 7 8 8 7 7 7 6 6 6 5 4 4 4 3 2 2 1
7 7 7 7 7 8 9 10 12 11 11 12 12 12 12 12 12 11 11 11 11 10 9 9 8 8 8 8 7 7 7 6 6 7 8 7 7 7 7 6 6 6 6 5 4 3 2 3 2
4 5 4 5 5 7 7 8 11 10 10 11 12 12 12 12 12 11 11 10 11 10 10 10 9 9 9 9 8 7 7 7 7 7 7 7 7 7 7 6 6 6 5 4 4 4 3 3 3
2 3 3 1 4 6 7 8 10 10 10 11 11 11 12 12 12 11 11 10 10 10 10 10 10 9 9 8 8 7 6 6 6 5 6 7 7 7 6 6 7 6 5 5 4 5 4 4 4
3 2 2 1 4 5 5 7 8 10 10 9 9 10 10 11 11 11 11 10 10 10 10 11 11 10 10 9 9 8 6 6 5 5 5 6 6 6 6 6 6 6 6 5 5 5 5 5 5
4 3 3 0 2 4 4 5 8 10 9 8 8 9 9 9 10 10 11 11 10 10 10 10 11 11 10 10 10 10 8 7 6 6 5 5 6 6 7 7 7 7 7 7 7 6 6 6 6
5 4 5 3 1 2 4 5 7 7 9 8 7 8 8 9 9 10 10 10 10 10 10 10 11 11 11 10 9 9 8 8 8 7 7 6 7 7 8 7 7 7 7 7 7 7 7 7 7
7 7 7 5 3 2 3 5 6 6 6 7 6 6 7 7 8 8 9 9 10 10 10 10 10 10 10 10 9 9 9 8 8 8 8 8 7 7 8 8 8 7 7 7 8 8 7 7 7
7 6 5 3 3 4 4 5 6 7 7 7 7 5 6 7 7 7 8 9 9 10 10 9 9 10 10 10 10 9 9 9 9 9 9 8 8 8 8 8 9 8 7 8 8 9 8 8 8
9 7 5 5 6 5 4 6 8 10 10 9 7 5 5 6 7 7 8 9 9 10 10 10 10 10 10 10 10 10 10 10 9 9 9 9 10 9 9 10 10 9 9 9 9 9 9 9 9
10 10 6 6 4 3 6 8 8 10 11 10 7 5 5 6 6 6 7 8 8 9 10 10 10 11 11 11 10 10 10 10 10 10 10 10 11 11 10 10 10 10 11 11 11 11 11 10 10
12 10 7 8 7 6 8 10 10 10 10 10 9 8 7 7 7 7 8 7 8 8 9 10 10 11 12 12 11 11 11 11 11 12 12 12 11 12 12 12 12 12 12 12 12 13 12 12 11
14 11 10 11 10 10 10 11 11 10 10 11 10 9 7 8 8 8 9 9 9 9 10 10 11 11 12 13 13 12 12 13 13 14 14 13 13 13 13 14 14 13 13 14 14 14 14 13 13
15 14 14 14 13 11 11 11 11 10 11 12 11 11 10 8 10 10 11 11 11 11 11 11 12 12 12 13 14 13 13 14 14 15 15 15 15 15 15 15 15 15 15 15 16 16 16 15 14
17 16 16 16 15 14 15 16 11 10 12 13 12 12 13 11 12 11 12 12 12 12 12 12 12 13 13 14 15 14 15 15 16 16 16 17 17 16 16 16 16 16 16 16 16 16 16 17 16
Wind_Direction
81 80 78 76 66 66 70 81 93 100 97 102 101 98 105 110 105 101 98 111 106 92 85 82 85 77 90 111 109 131 148 153 157 157 157 158 156 153 156 159 162 155 146 149 149 153 159 169 169
80 80 78 69 60 59 64 73 82 88 88 89 88 86 86 87 94 99 100 103 107 90 86 85 81 72 85 101 106 123 140 152 167 170 169 168 166 169 167 166 169 166 157 156 151 161 165 172 179
79 78 70 64 52 51 58 66 69 75 81 85 88 86 86 81 89 97 99 99 104 95 84 89 87 85 93 94 96 127 141 159 170 173 184 188 186 181 177 177 176 173 167 165 165 174 181 181 184
80 71 65 57 48 51 50 54 59 65 75 84 92 88 79 73 83 93 99 100 100 89 82 89 85 89 91 91 99 109 120 149 151 165 186 196 194 189 185 183 179 173 171 170 177 178 189 194 185
72 63 60 50 47 50 52 55 54 59 67 72 84 78 70 70 78 91 97 100 95 87 77 81 77 78 86 87 85 98 91 111 134 144 172 189 184 183 184 184 184 184 188 182 179 184 182 173 179
66 57 52 44 45 51 54 53 50 52 61 63 69 71 70 70 77 89 102 97 90 79 76 73 77 82 87 79 81 79 83 108 117 116 126 164 176 181 182 188 186 193 202 198 187 191 197 195 192
73 62 51 37 41 50 49 52 50 49 51 59 67 62 68 71 73 78 93 89 84 78 75 72 75 81 83 81 82 73 81 99 103 103 114 138 157 163 176 185 183 189 202 192 187 194 193 200 204
70 63 53 40 41 44 45 46 48 49 47 57 61 61 63 65 67 73 86 85 83 81 79 77 81 82 77 75 79 76 78 81 92 104 109 122 130 141 159 175 183 193 201 188 181 193 184 190 185
74 67 52 39 42 40 41 45 42 53 54 55 57 61 64 64 62 70 86 90 85 82 77 74 80 78 73 72 74 71 66 71 80 99 109 117 128 135 135 138 178 199 191 171 160 155 160 171 190
68 63 54 46 45 44 42 43 45 53 50 53 57 61 63 62 63 74 88 86 82 77 72 70 75 76 72 74 72 68 60 65 68 82 98 113 122 128 128 120 114 144 162 156 161 159 156 181 192
73 67 56 53 50 46 43 44 47 45 45 50 56 59 61 62 64 68 72 73 74 68 66 65 64 68 68 71 72 70 65 64 62 69 83 89 94 107 113 108 114 112 132 136 155 159 167 185 187
71 65 56 55 54 48 46 45 44 43 41 45 50 54 57 62 60 61 65 68 67 65 63 61 61 63 66 67 68 69 69 65 63 66 76 80 83 88 97 95 97 104 108 114 132 168 173 180 191
64 62 55 51 52 48 44 44 44 42 41 46 50 54 58 61 60 60 63 64 65 64 62 58 60 62 63 63 65 68 68 67 65 69 73 85 86 77 76 84 93 94 89 80 109 142 164 149 170
78 69 56 47 44 42 39 37 40 42 42 44 49 55 58 58 57 57 58 60 62 64 62 59 61 62 62 66 62 68 67 63 64 68 71 73 73 74 70 72 74 74 69 48 45 60 97 144 151
78 73 54 39 37 36 38 37 40 40 41 45 49 54 57 56 55 55 55 60 60 62 63 61 63 63 60 67 67 63 61 62 64 63 61 60 62 67 66 62 66 66 63 60 55 57 55 58 53
66 68 49 32 31 31 35 32 31 39 42 47 50 52 54 54 53 53 54 58 61 61 61 59 57 57 56 60 64 58 58 61 61 63 64 63 63 63 60 61 59 57 56 56 57 54 49 38 21
63 58 40 30 35 33 33 24 21 29 38 44 48 51 54 53 50 50 54 54 56 57 56 55 54 50 49 47 48 50 58 61 60 70 71 67 62 59 55 52 51 55 54 47 41 34 24 31 20
82 80 58 23 32 41 39 23 18 24 32 38 45 49 50 49 48 48 48 47 48 49 50 50 52 49 47 47 47 49 58 59 59 66 66 66 62 56 52 45 48 49 41 32 28 14 13 10 1
158 107 89 31 20 41 27 18 15 18 28 32 38 44 46 46 44 43 43 43 43 42 44 45 45 41 45 46 41 45 57 57 53 59 60 62 57 51 43 41 41 40 33 27 19 7 358 347 342
190 159 122 34 18 23 15 18 6 9 16 21 29 36 42 43 40 38 39 40 40 39 40 41 41 39 39 39 41 43 48 49 45 49 54 57 47 36 31 28 30 30 22 15 3 354 353 347 336
203 215 176 175 32 9 359 353 353 354 8 12 17 26 34 33 35 35 34 34 35 35 36 38 38 36 35 35 35 36 40 41 39 40 42 42 34 28 24 23 21 21 15 9 359 347 341 340 336
214 224 208 208 243 0 328 310 334 345 344 359 6 13 21 22 25 28 29 28 27 28 29 31 31 30 28 26 27 27 33 34 32 32 31 22 15 15 12 11 8 6 359 353 348 345 338 331 328
206 218 209 206 220 228 283 297 313 318 321 340 355 358 3 10 15 18 18 19 18 19 21 23 23 21 20 17 17 19 20 21 20 18 17 16 9 5 2 358 355 351 346 344 343 340 339 335 328
215 217 205 200 233 249 256 274 287 294 299 314 334 346 345 355 5 14 15 14 13 14 14 13 15 15 12 9 9 11 12 10 9 7 5 4 2 357 350 346 344 339 338 339 337 335 331 328 326
220 221 226 240 253 260 261 261 274 282 289 298 311 323 335 341 349 354 0 5 9 13 13 8 11 9 7 4 3 2 1 2 1 357 352 349 349 347 341 336 336 332 329 325 324 321 320 316 316
220 225 228 249 269 239 247 254 265 282 291 296 295 302 316 324 331 338 343 349 357 3 6 3 4 3 360 358 357 354 352 351 347 344 342 338 337 336 334 333 329 323 318 315 314 312 308 307 308
226 220 231 250 254 247 243 255 259 276 286 292 292 291 300 311 316 319 326 334 337 344 350 352 356 357 356 352 350 347 343 340 338 335 334 332 330 330 328 327 325 320 314 313 310 310 305 302 302
229 223 233 246 249 244 249 267 266 268 281 290 291 287 285 296 300 300 308 317 322 326 332 338 341 345 348 347 345 342 338 336 335 333 328 325 324 325 324 321 318 316 312 310 308 307 305 303 301
232 226 226 228 231 251 256 249 258 271 284 289 292 288 279 280 290 298 302 305 309 314 320 325 330 333 335 338 340 338 336 334 332 330 328 326 322 320 319 317 313 311 310 309 308 307 305 304 301
232 232 232 236 234 238 257 254 252 262 274 278 282 282 280 282 286 291 293 296 301 306 310 315 319 322 323 326 329 330 332 331 329 328 326 324 322 319 317 315 313 309 309 307 307 307 306 302 299
Height
5877 5876 5877 5877 5876 5876 5877 5877 5877 5877 5876 5876 5876 5876 5876 5876 5877 5879 5876 5874 5875 5874 5874 5874 5873 5873 5873 5873 5873 5873 5873 5874 5874 5875 5875 5876 5877 5878 5879 5879 5880 5880 5881 5882 5883 5884 5885 5885 5886
5879 5879 5879 5879 5879 5879 5880 5879 5879 5879 5878 5878 5877 5878 5877 5877 5877 5877 5875 5875 5875 5875 5874 5874 5874 5874 5874 5874 5874 5874 5874 5874 5875 5875 5876 5876 5877 5878 5879 5880 5880 5881 5882 5883 5883 5884 5885 5886 5886
5882 5881 5880 5881 5883 5882 5882 5881 5881 5880 5880 5879 5879 5879 5879 5878 5878 5877 5877 5876 5876 5876 5875 5875 5875 5875 5875 5875 5875 5874 5874 5875 5875 5875 5875 5876 5877 5878 5879 5880 5881 5881 5882 5883 5884 5884 5885 5886 5887
5884 5883 5884 5886 5886 5885 5885 5884 5883 5882 5882 5881 5881 5881 5880 5880 5879 5878 5877 5877 5877 5877 5876 5876 5876 5876 5876 5876 5875 5875 5875 5875 5874 5874 5874 5874 5876 5878 5879 5880 5881 5882 5882 5883 5884 5885 5885 5886 5887
5885 5885 5888 5889 5888 5888 5887 5886 5885 5884 5884 5883 5883 5882 5881 5880 5880 5879 5879 5878 5878 5878 5877 5877 5877 5877 5877 5876 5876 5876 5875 5875 5874 5874 5872 5873 5875 5877 5879 5880 5881 5881 5882 5883 5884 5885 5885 5886 5887
5889 5890 5892 5892 5891 5890 5889 5888 5887 5886 5885 5884 5884 5883 5882 5882 5881 5880 5880 5880 5879 5879 5878 5878 5878 5878 5878 5877 5877 5876 5876 5876 5875 5874 5872 5873 5875 5877 5879 5880 5881 5881 5882 5883 5884 5884 5885 5886 5886
5893 5896 5895 5896 5894 5893 5891 5890 5889 5888 5887 5886 5886 5885 5884 5883 5882 5882 5881 5881 5880 5880 5880 5879 5879 5879 5878 5878 5878 5877 5877 5877 5877 5876 5875 5875 5877 5878 5879 5880 5881 5881 5882 5882 5883 5884 5884 5884 5886
5898 5899 5898 5898 5897 5895 5894 5892 5891 5890 5889 5888 5887 5886 5885 5884 5884 5883 5882 5882 5882 5881 5881 5881 5880 5880 5879 5879 5879 5879 5878 5878 5878 5878 5877 5878 5878 5879 5880 5880 5881 5881 5881 5882 5882 5883 5883 5884 5885
5902 5903 5902 5901 5899 5898 5896 5895 5893 5892 5891 5890 5889 5888 5887 5886 5885 5884 5884 5883 5883 5883 5883 5882 5881 5881 5881 5880 5880 5880 5879 5879 5879 5879 5879 5879 5880 5880 5880 5880 5881 5881 5881 5882 5882 5883 5883 5884 5885
5905 5905 5905 5903 5902 5900 5899 5897 5895 5894 5893 5892 5890 5889 5889 5888 5887 5886 5885 5885 5885 5885 5884 5884 5883 5883 5882 5882 5882 5882 5881 5881 5880 5880 5880 5880 5880 5880 5881 5881 5881 5881 5881 5882 5882 5883 5884 5885 5885
5908 5908 5907 5905 5904 5903 5901 5899 5898 5897 5896 5894 5893 5892 5891 5890 5889 5888 5887 5887 5886 5886 5886 5885 5885 5885 5884 5883 5883 5883 5883 5882 5882 5882 5882 5882 5881 5881 5881 5881 5881 5881 5881 5882 5883 5883 5884 5885 5886
5911 5910 5909 5908 5907 5905 5904 5902 5901 5900 5898 5896 5895 5894 5893 5892 5891 5890 5889 5889 5888 5888 5887 5887 5886 5886 5886 5885 5885 5884 5884 5884 5884 5883 5883 5883 5883 5883 5882 5882 5882 5882 5882 5883 5883 5884 5885 5886 5886
5912 5911 5911 5910 5909 5908 5906 5905 5904 5902 5900 5899 5897 5896 5895 5894 5893 5892 5891 5891 5890 5890 5889 5889 5888 5888 5887 5887 5886 5886 5886 5885 5885 5884 5884 5884 5884 5884 5883 5883 5883 5883 5883 5883 5884 5884 5885 5886 5886
5914 5913 5913 5912 5912 5910 5909 5908 5906 5905 5903 5902 5900 5899 5898 5897 5896 5895 5894 5893 5892 5891 5891 5890 5890 5890 5889 5888 5888 5887 5887 5887 5886 5886 5885 5885 5885 5885 5884 5884 5884 5884 5884 5884 5884 5885 5885 5886 5886
5915 5915 5916 5915 5914 5913 5912 5910 5909 5908 5906 5905 5903 5902 5901 5900 5898 5897 5896 5895 5894 5894 5893 5893 5892 5891 5891 5890 5890 5889 5889 5888 5887 5887 5886 5886 5886 5886 5886 5885 5885 5885 5885 5885 5885 5885 5886 5886 5887
5917 5918 5919 5919 5918 5916 5916 5914 5912 5910 5909 5907 5906 5904 5903 5902 5901 5900 5899 5898 5897 5896 5895 5895 5894 5894 5893 5892 5891 5891 5890 5889 5889 5888 5888 5888 5887 5887 5887 5887 5886 5886 5886 5886 5886 5887 5887 5887 5887
5920 5922 5923 5922 5921 5919 5918 5916 5915 5913 5911 5910 5908 5907 5906 5905 5904 5902 5901 5900 5899 5898 5898 5897 5896 5896 5895 5894 5893 5892 5892 5891 5890 5890 5890 5889 5889 5888 5888 5888 5888 5888 5888 5888 5887 5887 5887 5888 5888
5923 5925 5926 5925 5924 5922 5921 5919 5918 5916 5914 5912 5911 5910 5909 5908 5906 5905 5904 5903 5902 5901 5900 5899 5898 5897 5896 5895 5894 5893 5893 5892 5892 5891 5891 5891 5890 5890 5890 5890 5889 5889 5889 5889 5888 5888 5888 5888 5888
5925 5926 5926 5927 5925 5924 5923 5921 5920 5918 5916 5915 5914 5913 5911 5910 5909 5907 5906 5905 5904 5903 5902 5901 5900 5899 5898 5897 5895 5894 5894 5894 5893 5893 5892 5892 5892 5891 5891 5891 5890 5890 5890 5889 5889 5889 5888 5888 5888
5925 5926 5927 5927 5927 5926 5925 5924 5922 5921 5919 5918 5916 5915 5914 5913 5912 5910 5909 5908 5907 5905 5904 5903 5902 5901 5900 5898 5897 5896 5896 5895 5895 5894 5894 5894 5893 5893 5892 5892 5891 5891 5891 5890 5889 5889 5888 5888 5887
5926 5927 5928 5928 5927 5927 5926 5926 5924 5923 5921 5919 5918 5917 5916 5915 5914 5912 5911 5910 5909 5907 5906 5905 5904 5903 5901 5900 5899 5899 5898 5897 5897 5896 5895 5895 5894 5894 5893 5892 5892 5891 5891 5890 5889 5888 5888 5887 5886
5925 5927 5927 5927 5927 5927 5928 5927 5925 5923 5922 5921 5920 5919 5918 5917 5915 5914 5913 5912 5911 5909 5908 5907 5906 5905 5903 5902 5901 5901 5900 5899 5898 5897 5897 5896 5895 5895 5894 5893 5892 5891 5890 5890 5889 5888 5887 5886 5886
5924 5924 5925 5926 5927 5927 5928 5928 5925 5924 5923 5923 5922 5920 5919 5918 5917 5916 5914 5913 5912 5911 5910 5909 5908 5906 5905 5904 5903 5902 5901 5900 5899 5898 5898 5897 5896 5895 5894 5893 5892 5891 5890 5889 5888 5887 5886 5885 5885
5922 5923 5924 5925 5926 5927 5928 5928 5925 5924 5923 5923 5922 5921 5920 5919 5918 5917 5916 5915 5914 5912 5911 5910 5909 5908 5906 5905 5904 5903 5902 5901 5900 5899 5898 5897 5896 5895 5894 5893 5891 5890 5889 5888 5887 5886 5885 5884 5883
5922 5923 5924 5924 5924 5926 5927 5927 5926 5924 5924 5923 5922 5922 5921 5920 5919 5918 5917 5916 5915 5913 5912 5911 5910 5909 5907 5906 5905 5904 5903 5901 5900 5899 5898 5897 5896 5895 5893 5892 5890 5889 5888 5887 5886 5885 5884 5882 5881
5919 5921 5923 5924 5924 5926 5927 5926 5926 5924 5923 5922 5921 5921 5920 5920 5919 5918 5917 5916 5915 5914 5913 5912 5911 5909 5908 5907 5905 5904 5903 5902 5900 5899 5898 5896 5895 5894 5892 5890 5889 5888 5886 5885 5884 5883 5882 5881 5880
5917 5919 5922 5922 5923 5924 5925 5924 5923 5922 5922 5921 5920 5920 5920 5919 5919 5918 5917 5916 5915 5914 5913 5912 5911 5909 5908 5907 5905 5904 5903 5901 5900 5898 5897 5895 5894 5892 5890 5889 5887 5886 5884 5883 5881 5880 5879 5878 5877
5915 5917 5921 5920 5920 5922 5923 5921 5921 5920 5920 5920 5919 5919 5918 5918 5917 5916 5916 5915 5915 5914 5913 5912 5910 5909 5908 5906 5905 5903 5902 5900 5899 5897 5895 5894 5892 5890 5889 5887 5885 5883 5882 5880 5879 5877 5876 5875 5874
5913 5915 5916 5917 5919 5920 5920 5921 5918 5918 5918 5918 5918 5917 5916 5916 5916 5915 5915 5914 5913 5913 5912 5910 5909 5908 5907 5905 5904 5902 5901 5899 5897 5895 5893 5891 5889 5888 5886 5884 5882 5880 5879 5877 5876 5874 5872 5871 5870
5909 5911 5914 5915 5915 5917 5917 5918 5915 5915 5916 5916 5916 5915 5914 5914 5914 5914 5913 5912 5911 5911 5910 5909 5908 5907 5905 5904 5902 5900 5899 5897 5895 5893 5891 5889 5887 5885 5883 5881 5879 5877 5876 5874 5872 5871 5869 5868 5867